Location: Tauranga
(37.6860°S, 176.1670°E)
Time: 15:52:47
(UTC+13:00)

Cosmos 1980 Rocket - Pass Details

Date: 24 January 2019
Orbit: 828 x 851 km, 71.0° (Epoch: 18 February)

Event Time Altitude Azimuth Distance (km) Brightness Sun altitude
Rises 21:01:42 0° 332° (NNW) 3,407 5.3 -5.6°
Reaches altitude 10° 21:04:09 10° 329° (NNW) 2,478 4.7 -6.0°
Maximum altitude 21:09:49 66° 246° (WSW) 931 2.8 -7.0°
Drops below altitude 10° 21:15:32 10° 163° (SSE) 2,498 4.9 -8.0°
Sets 21:18:02 0° 160° (SSE) 3,437 5.5 -8.4°
